AirNav   Everest Fuels
 
 746 users online  

MU66 Winfield Manor Heliport
Winfield, Missouri, USA

GOING TO WINFIELD?


FAA INFORMATION EFFECTIVE 26 MARCH 2020

Location

FAA Identifier: MU66
Lat/Long: 39-01-47.4300N 090-49-23.7500W
39-01.790500N 090-49.395833W
39.0298417,-90.8232639
(estimated)
Elevation: 732 ft. / 223 m (estimated)
Variation: 01E (2000)
From city: 3 miles SE of WINFIELD, MO
Time zone: UTC -5 (UTC -6 during Standard Time)
Zip code: 63389

Heliport Operations

Heliport use: Private use. Permission required prior to landing
Activation date: 10/1986
Control tower: no
ARTCC: KANSAS CITY CENTER
FSS: SAINT LOUIS FLIGHT SERVICE STATION
NOTAMs facility: FDC (NOTAM-D service not available)
Attendance: UNATNDD
Wind indicator: yes
Segmented circle: no
Lights: FOR FLOOD LGTS CALL 314-553-2225.
Beacon: white-green-yellow (heliport)
FOR ROTG BCN CALL 314-731-4517.

Heliport Communications

WX ASOS at SET (19 nm E): 118.075 (636-250-4590)

Nearby radio navigation aids

VOR radial/distance  VOR name  Freq  Var
STLr302/18.9ST LOUIS VORTAC117.4001E
FTZr014/21.3FORISTELL VORTAC110.8005E

 
NDB name  Hdg/Dist  Freq  Var  ID
CIVIC MEMORIAL284/36.726301WCVM -.-. ...- --

Heliport Services

Runway Information

Helipad H1

Dimensions: 50 x 50 ft. / 15 x 15 m
Surface: concrete
Runway edge lights: FLD
Latitude: 39-01.790500N
Longitude: 090-49.395833W
Elevation: 732.0 ft.
Traffic pattern: leftleft

Heliport Ownership and Management from official FAA records

Ownership: Privately-owned
Owner: EMERSON ELECTRIC CO.
8000 W. FLORISSANT
ST LOUIS, MO 63136
Phone (314) 553-2225
Manager: MOLLY LINDSAY
RR 1, BOX 128
WINFIELD, MO 63389
Phone (314) 553-3900

Additional Remarks

A52-H1 TREES 80' WEST AND WIRES 400' NORTH.
FOR CD CTC ST LOUIS APCH AT 314-890-1018.

Instrument Procedures

There are no published instrument procedures at MU66.

Some nearby airports with instrument procedures:

KSET - St Charles County Smartt Airport (19 nm E)
1H0 - Creve Coeur Airport (23 nm SE)
KSUS - Spirit of St Louis Airport (23 nm S)
KSTL - St Louis Lambert International Airport (27 nm SE)
H19 - Bowling Green Municipal Airport (27 nm NW)
 
Loc | Ops | Rwys | IFR | FBO | Links
Com | Nav | Svcs | Stats | Notes

Kansas City Aviation Department
 
Area around MU66 (Winfield Manor Heliport)
 
Road maps at: MapQuest Bing Google
 
Aerial photo
No photo
 
Sectional chart

 
Airport distance calculator
Flying to Winfield Manor Heliport? Find the distance to fly.

From to MU66

Sunrise and sunset
Times for 02-Apr-2020
 Local
(UTC-5)
 Zulu
(UTC)
Morning civil twilight06:1911:19
Sunrise06:4611:46
Sunset19:2800:28
Evening civil twilight19:5500:55

Current date and time
Zulu (UTC)  03-Apr-2020 01:42:21
Local (UTC-5)  02-Apr-2020 20:42:21
 
METAR
KSET 
19nm E 
030054Z AUTO 12012KT 10SM CLR 18/07 A2997 RMK AO2 SLP148 T01830067
KSUS 
24nm S 
030054Z 14007G19KT 10SM CLR 19/06 A2998 RMK AO2 SLP149 T01890056
KSTL 
27nm SE 
030051Z 13015KT 10SM BKN130 OVC250 19/05 A2999 RMK AO2 SLP154 T01890050
KFYG 
28nm S 
030115Z AUTO 12009KT 10SM CLR 19/06 A2995 RMK AO2
KPPQ 
36nm N 
030115Z AUTO 12012KT 10SM BKN120 16/09 A2999 RMK AO2 T01570085
KALN 
38nm E 
030050Z 10009KT 10SM OVC130 17/09 A3000
TAF
KSUS 
24nm S 
021859Z 0219/0318 12010KT P6SM SCT250 FM022000 15012KT P6SM BKN250 FM030500 14007KT P6SM VCSH OVC090 FM031400 16008KT P6SM VCSH OVC040
KSTL 
27nm SE 
022052Z 0221/0324 14012G20KT P6SM SCT120 BKN250 FM030000 14012KT P6SM BKN250 FM030500 14008KT P6SM VCSH OVC080 FM032100 16007KT P6SM VCSH OVC030
NOTAMs
Click for the latest NOTAMs
NOTAMs are issued by the DoD/FAA and will open in a separate window not controlled by AirNav.

 

 
 

Would you like to see your business listed on this page?

 If your business provides an interesting product or service to pilots, flight crews, aircraft, or users of the Winfield Manor Heliport, you should consider listing it here.  To start the listing process, click on the button below
 
Add a business
 

Other Pages about Winfield Manor Heliport

Update a link
 
Copyright © AirNav, LLC. All rights reserved. Privacy Policy  Contact